Preview of NWS' New Version of Forecast
This preview is not operational and should not be used for support decisions.

Regional Weather Roundup (RWR)

Issued by National Weather Service (NWS)

                            
000
ASUS46 KPQR 241410
RWROR 

OREGON REGIONAL WEATHER ROUNDUP
NATIONAL WEATHER SERVICE PORTLAND OR
700 AM PDT SAT AUG 24 2019

NOTE: "FAIR" INDICATES FEW OR NO CLOUDS BELOW 12,000 FEET WITH
NO SIGNIFICANT WEATHER AND/OR OBSTRUCTIONS TO VISIBILITY.

ORZ001>013-241500-
NORTHWEST OREGON

  
CITY           SKY/WX    TMP DP  RH WIND       PRES   REMARKS
ASTORIA        CLOUDY    55  53  93 SE3       29.97R                  
TILLAMOOK      CLEAR     46  45  93 CALM      30.01R                  
NEWPORT        CLEAR     46  46 100 CALM      30.01R                  
FLORENCE       FAIR      46  46 100 CALM      29.99R                  
PORTLAND       PTCLDY    61  45  55 CALM      29.97R                  
VANCOUVER WA   PTCLDY    56  43  61 CALM      29.97R                  
SCAPPOOSE      PTCLDY    53  47  79 CALM      29.96R                  
HILLSBORO      PTCLDY    53  44  71 CALM      29.97R                  
AURORA         CLEAR     56  46  69 CALM      29.97S                  
MCMINNVILLE    CLEAR     51  48  89 NW5       29.97R                  
SALEM          CLEAR     53  48  83 CALM      29.96R                  
CORVALLIS      CLEAR     54  49  83 CALM      29.99R                  
EUGENE         CLEAR     52  48  86 CALM      29.98R                  
CRESWELL       CLEAR     50  50 100 CALM      29.96R                  
$$

ORZ021-028-241500-
SOUTHWEST OREGON

  
CITY           SKY/WX    TMP DP  RH WIND       PRES   REMARKS
NORTH BEND     FOG       50  50 100 S3        30.00R VSB 1/4          
BROOKINGS      CLEAR     52  51  97 CALM      29.93R                  
ROSEBURG       CLEAR     57  52  83 N5        29.97R                  
SEXTON SUMMIT  CLEAR     62  42  47 SE5       30.03R                  
GRANTS PASS    FAIR      54  48  82 CALM      29.99R                  
MEDFORD        CLEAR     57  50  77 N5        29.96R                  
$$

ORZ014>016-041-241500-
COLUMBIA GORGE

  
CITY           SKY/WX    TMP DP  RH WIND       PRES   REMARKS
TROUTDALE      PTCLDY    57  49  74 CALM      29.96R                  
HOOD RIVER     PTCLDY    63  54  72 NW3       29.90S                  
THE DALLES     MOCLDY    68  53  58 W10G20    29.87R                  
$$

ORZ029>031-041-044-049-050-061>064-502-503-505>511-241500-
EASTERN OREGON

  
CITY           SKY/WX    TMP DP  RH WIND       PRES   REMARKS
MADRAS         CLEAR     50  45  81 SE6       29.97R                  
REDMOND        CLEAR     51  44  77 SE5       29.98R                  
BEND           CLEAR     55  46  71 SW7       29.99R                  
PRINEVILLE     CLEAR     48  45  87 CALM      29.99R                  
KLAMATH FALLS  CLEAR     50  45  83 CALM      30.04R                  
LAKEVIEW       CLEAR     44  38  79 N3        30.09R                  
HERMISTON      CLOUDY    71  50  47 SW9       29.83R                  
PENDLETON      CLOUDY    69  41  36 SW3       29.87R                  
JOHN DAY       CLEAR     56  37  49 E5        30.00R                  
MEACHAM        MOCLDY    50  42  74 CALM      29.97R                  
LA GRANDE      NOT AVBL                                               
BAKER CITY     CLEAR     49  45  86 CALM      29.97R                  
BURNS          PTCLDY    48  34  58 CALM      30.01R                  
ROME             N/A     57  25  29 S3        30.00R                  
ONTARIO        CLEAR     56  47  71 CALM      29.92R                  
$$